Total_Precipitation_Accumulation
0.02 0.05 0.13 0.11 0.11 0.11 0.12 0.13 0.14 0.15 0.17 0.17 0.16 0.17 0.20 0.20 0.16 0.12 0.13 0.16 0.19 0.25 0.31 0.31 0.35 0.38 0.36 0.34 0.29 0.14 0.06 0.04 0.04 0.03 0.04 0.05 0.07 0.08 0.07 0.07 0.08 0.09 0.12
0.02 0.04 0.12 0.11 0.12 0.13 0.14 0.14 0.12 0.12 0.15 0.17 0.18 0.20 0.24 0.21 0.16 0.14 0.15 0.17 0.21 0.28 0.30 0.29 0.24 0.20 0.20 0.19 0.13 0.06 0.03 0.01 0.01 0.00 0.01 0.01 0.04 0.06 0.06 0.07 0.08 0.10 0.13
0.02 0.05 0.12 0.12 0.13 0.14 0.14 0.13 0.10 0.10 0.13 0.16 0.19 0.23 0.24 0.20 0.18 0.18 0.19 0.19 0.24 0.27 0.25 0.19 0.14 0.08 0.06 0.04 0.03 0.02 0.01 0.01 0.00 0.00 0.01 0.02 0.03 0.05 0.06 0.07 0.08 0.10 0.10
0.03 0.06 0.12 0.14 0.15 0.15 0.13 0.12 0.12 0.13 0.15 0.17 0.20 0.25 0.23 0.20 0.20 0.18 0.18 0.18 0.19 0.17 0.15 0.10 0.07 0.03 0.02 0.01 0.01 0.01 0.00 0.00 0.00 0.00 0.01 0.02 0.02 0.06 0.08 0.09 0.09 0.08 0.08
0.05 0.08 0.15 0.18 0.20 0.19 0.17 0.15 0.15 0.16 0.19 0.20 0.22 0.24 0.23 0.21 0.20 0.18 0.16 0.14 0.13 0.09 0.06 0.06 0.03 0.02 0.01 0.01 0.01 0.00 0.00 0.00 0.00 0.00 0.01 0.02 0.04 0.09 0.09 0.09 0.10 0.10 0.11
0.09 0.12 0.18 0.19 0.23 0.24 0.23 0.22 0.21 0.21 0.22 0.25 0.25 0.25 0.26 0.24 0.22 0.22 0.18 0.11 0.08 0.06 0.04 0.03 0.02 0.02 0.01 0.00 0.00 0.00 0.00 0.00 0.00 0.00 0.01 0.03 0.07 0.14 0.13 0.12 0.13 0.15 0.17
0.17 0.21 0.24 0.24 0.27 0.26 0.26 0.26 0.25 0.26 0.28 0.31 0.30 0.30 0.30 0.28 0.23 0.21 0.18 0.09 0.05 0.05 0.04 0.03 0.02 0.01 0.01 0.00 0.01 0.00 0.00 0.00 0.00 0.00 0.01 0.03 0.07 0.13 0.13 0.12 0.13 0.15 0.17
0.28 0.34 0.35 0.33 0.34 0.31 0.29 0.29 0.28 0.31 0.34 0.37 0.37 0.37 0.38 0.34 0.28 0.20 0.16 0.09 0.06 0.05 0.03 0.03 0.02 0.01 0.01 0.01 0.01 0.00 0.00 0.00 0.00 0.01 0.02 0.02 0.04 0.09 0.10 0.09 0.09 0.09 0.10
0.52 0.53 0.53 0.48 0.42 0.37 0.34 0.32 0.31 0.34 0.38 0.39 0.39 0.39 0.40 0.38 0.31 0.22 0.15 0.09 0.07 0.06 0.04 0.03 0.02 0.02 0.01 0.01 0.01 0.00 0.00 0.00 0.00 0.01 0.01 0.02 0.05 0.09 0.08 0.08 0.08 0.07 0.07
0.82 0.77 0.71 0.66 0.60 0.53 0.46 0.38 0.35 0.37 0.40 0.41 0.35 0.30 0.29 0.31 0.30 0.25 0.15 0.12 0.08 0.08 0.07 0.04 0.03 0.03 0.02 0.01 0.01 0.00 0.00 0.00 0.00 0.00 0.01 0.02 0.05 0.08 0.08 0.07 0.07 0.07 0.07
1.12 1.00 0.87 0.77 0.73 0.63 0.56 0.45 0.40 0.41 0.44 0.41 0.33 0.25 0.24 0.29 0.28 0.24 0.14 0.11 0.10 0.08 0.08 0.06 0.04 0.02 0.01 0.00 0.00 0.00 0.00 0.00 0.00 0.00 0.01 0.02 0.04 0.06 0.06 0.06 0.06 0.07 0.08
1.24 1.13 1.02 0.89 0.79 0.72 0.63 0.52 0.49 0.44 0.42 0.38 0.29 0.24 0.23 0.23 0.23 0.18 0.15 0.10 0.10 0.08 0.07 0.06 0.05 0.02 0.01 0.00 0.00 0.00 0.00 0.00 0.00 0.00 0.01 0.01 0.02 0.04 0.04 0.04 0.06 0.06 0.06
1.44 1.35 1.21 1.07 0.95 0.87 0.75 0.60 0.52 0.48 0.43 0.39 0.31 0.26 0.23 0.24 0.25 0.23 0.20 0.15 0.14 0.09 0.07 0.05 0.03 0.01 0.00 0.00 0.00 0.00 0.00 0.00 0.00 0.00 0.00 0.00 0.01 0.02 0.03 0.03 0.04 0.05 0.05
1.54 1.45 1.39 1.29 1.13 1.01 0.84 0.68 0.57 0.51 0.45 0.41 0.36 0.33 0.30 0.25 0.21 0.20 0.18 0.14 0.13 0.09 0.07 0.05 0.02 0.01 0.00 0.00 0.00 0.00 0.00 0.00 0.00 0.00 0.00 0.00 0.01 0.01 0.02 0.03 0.04 0.04 0.06
1.41 1.44 1.36 1.31 1.19 1.07 0.92 0.76 0.60 0.54 0.47 0.43 0.43 0.40 0.35 0.27 0.21 0.19 0.20 0.19 0.16 0.11 0.08 0.05 0.03 0.02 0.01 0.00 0.00 0.00 0.00 0.00 0.00 0.00 0.00 0.00 0.00 0.01 0.01 0.02 0.03 0.06 0.09
1.31 1.37 1.38 1.32 1.21 1.13 1.00 0.83 0.65 0.57 0.53 0.53 0.48 0.41 0.37 0.30 0.25 0.22 0.20 0.18 0.15 0.13 0.11 0.07 0.04 0.03 0.02 0.01 0.00 0.00 0.00 0.00 0.00 0.00 0.00 0.00 0.00 0.00 0.01 0.02 0.04 0.08 0.13
1.30 1.39 1.37 1.35 1.32 1.15 1.04 0.94 0.80 0.67 0.60 0.57 0.51 0.44 0.41 0.34 0.27 0.24 0.22 0.19 0.15 0.14 0.13 0.11 0.09 0.07 0.04 0.02 0.01 0.00 0.00 0.00 0.00 0.00 0.00 0.00 0.00 0.00 0.00 0.01 0.04 0.09 0.14
1.36 1.45 1.44 1.35 1.31 1.20 1.07 1.02 0.91 0.78 0.69 0.61 0.60 0.53 0.46 0.41 0.36 0.30 0.23 0.18 0.18 0.18 0.17 0.15 0.12 0.10 0.07 0.04 0.02 0.01 0.01 0.01 0.00 0.00 0.00 0.00 0.00 0.00 0.00 0.01 0.03 0.07 0.11
1.40 1.50 1.53 1.49 1.41 1.39 1.34 1.22 1.12 0.99 0.81 0.75 0.70 0.63 0.52 0.46 0.41 0.37 0.29 0.24 0.26 0.25 0.20 0.16 0.12 0.12 0.11 0.08 0.06 0.04 0.02 0.01 0.01 0.01 0.00 0.00 0.00 0.01 0.01 0.02 0.02 0.03 0.06
1.56 1.66 1.66 1.64 1.60 1.69 1.70 1.57 1.36 1.19 0.98 0.86 0.81 0.70 0.64 0.58 0.50 0.41 0.35 0.34 0.36 0.34 0.28 0.23 0.19 0.16 0.15 0.14 0.11 0.05 0.03 0.02 0.02 0.01 0.01 0.01 0.01 0.02 0.03 0.03 0.03 0.02 0.02
1.65 1.74 1.75 1.71 1.71 1.74 1.72 1.59 1.39 1.20 1.13 1.01 0.93 0.88 0.82 0.77 0.74 0.60 0.44 0.42 0.43 0.40 0.38 0.36 0.34 0.32 0.27 0.23 0.18 0.10 0.05 0.03 0.02 0.01 0.02 0.02 0.02 0.03 0.04 0.04 0.03 0.03 0.02
1.53 1.77 1.85 1.83 1.85 1.72 1.59 1.63 1.60 1.52 1.38 1.27 1.21 1.11 0.97 0.90 0.89 0.81 0.70 0.62 0.58 0.52 0.49 0.48 0.48 0.44 0.39 0.39 0.34 0.28 0.15 0.07 0.03 0.02 0.03 0.03 0.03 0.03 0.03 0.04 0.04 0.04 0.03
1.31 1.62 1.80 1.91 1.94 1.92 1.87 1.99 1.93 1.81 1.58 1.31 1.14 1.13 1.10 1.05 1.02 0.96 0.92 0.90 0.86 0.79 0.69 0.66 0.65 0.59 0.53 0.50 0.48 0.47 0.30 0.15 0.08 0.04 0.03 0.03 0.03 0.03 0.04 0.04 0.05 0.05 0.04
1.10 1.34 1.54 1.81 2.00 2.07 2.12 2.07 1.95 1.74 1.50 1.27 1.23 1.33 1.34 1.26 1.16 1.10 1.07 1.04 1.04 0.95 0.85 0.86 0.87 0.79 0.75 0.65 0.60 0.52 0.42 0.29 0.23 0.14 0.06 0.06 0.05 0.04 0.05 0.06 0.06 0.06 0.05
1.01 1.19 1.33 1.55 1.86 1.95 1.90 1.88 1.95 1.82 1.60 1.48 1.44 1.41 1.38 1.30 1.21 1.12 1.07 1.08 1.05 1.01 0.95 0.94 0.93 0.91 0.87 0.80 0.69 0.63 0.57 0.43 0.30 0.27 0.17 0.09 0.09 0.08 0.09 0.09 0.07 0.07 0.07
0.85 1.05 1.23 1.31 1.52 1.68 1.66 1.71 1.78 1.70 1.63 1.53 1.39 1.32 1.32 1.28 1.17 1.10 1.04 1.02 1.03 1.00 0.95 0.94 0.98 1.00 0.96 0.86 0.74 0.65 0.61 0.52 0.41 0.39 0.34 0.22 0.19 0.16 0.14 0.13 0.12 0.12 0.13